RH
47 46 45 44 42 42 40 35 30 25 22 23 28 33 36 39 44 50 53 53 57 62 64 62 63 64 65 64 62 63 64 69 73 70 69 74 73 67 69 75 75 70 64 61 59 56 55 55 55 56 57 57 56 56 55 53 52 50 45 40 38 38 37 37 37 38 38 38 38 38 38 38 38 37 38 39 39 39 38 36 34 33 34 34 34
48 46 47 48 47 45 44 40 34 28 24 22 26 32 34 36 40 46 50 51 54 60 64 63 63 63 63 67 71 70 69 69 70 68 69 74 76 71 72 76 77 72 67 63 61 59 58 56 56 59 61 60 58 58 59 59 57 54 50 45 41 40 39 37 36 37 38 38 39 38 37 37 38 37 37 38 39 38 38 37 36 34 34 34 33
60 56 55 56 54 49 46 44 39 32 26 23 24 27 30 33 36 41 46 51 54 58 61 60 59 59 60 67 74 77 79 76 72 72 74 76 78 78 79 82 80 77 74 69 65 64 63 59 57 61 64 64 62 61 61 62 61 58 54 50 46 44 43 41 39 38 37 38 40 41 39 37 37 37 37 38 38 38 37 37 37 36 34 34 33
72 69 66 65 61 55 49 48 46 39 31 26 24 24 26 28 29 32 37 44 48 51 53 54 54 58 61 64 68 75 80 77 72 74 76 77 79 81 84 85 83 81 80 77 72 69 67 64 62 64 66 66 65 64 62 61 62 60 57 54 53 50 48 46 43 40 39 38 40 44 43 39 38 38 38 38 38 38 37 37 37 36 35 35 34
77 74 70 68 67 62 55 53 53 48 38 31 26 24 25 26 27 28 30 35 41 45 49 53 55 60 65 66 68 75 78 73 67 68 73 75 77 78 81 84 85 83 81 80 77 72 69 68 67 67 69 69 66 65 63 60 61 61 59 57 58 57 54 51 48 45 41 39 40 45 46 43 41 40 40 40 39 38 38 37 37 37 37 37 36
77 75 70 68 69 69 67 64 60 54 46 39 33 29 27 26 26 27 29 32 36 41 48 53 54 55 60 64 68 72 75 72 65 62 67 72 73 73 75 79 81 81 81 80 78 75 72 71 70 70 71 71 66 65 65 62 60 60 60 60 61 61 59 56 53 50 45 41 40 44 48 46 44 42 42 42 41 40 39 38 37 37 38 38 37
72 76 75 71 70 71 73 71 66 60 54 49 44 39 34 30 29 28 29 30 33 37 43 50 54 54 56 60 65 66 69 73 70 62 62 68 69 71 74 75 74 74 76 78 78 77 76 74 73 73 73 72 69 67 67 67 64 62 60 61 62 63 63 61 59 57 52 47 44 44 46 47 46 45 44 43 43 42 40 39 37 37 38 39 39
64 71 77 79 77 74 72 72 69 64 59 54 50 46 40 36 33 30 29 29 31 33 35 39 45 48 48 52 57 60 63 70 72 66 64 67 67 67 68 69 68 66 68 71 72 74 76 75 74 74 74 74 72 71 71 71 70 67 63 63 64 64 64 65 64 62 59 56 51 47 46 46 47 47 47 46 44 42 41 40 39 38 39 39 39
60 65 73 80 82 80 77 75 71 65 62 58 53 49 45 41 36 33 31 30 31 32 33 34 37 40 41 42 48 57 62 65 68 69 68 68 65 63 63 64 64 62 61 62 64 68 74 76 74 74 74 73 73 73 74 75 74 71 67 65 66 66 65 65 66 65 64 62 58 55 51 47 45 46 47 47 45 43 43 43 43 41 40 40 40
57 60 66 73 79 80 78 75 71 65 63 61 56 52 49 45 41 37 33 32 32 32 31 33 36 38 39 39 43 52 59 59 59 63 67 68 65 64 64 64 63 62 61 62 63 66 72 75 73 73 76 75 73 72 74 76 74 71 69 67 68 68 67 66 66 66 67 67 64 62 58 51 45 43 44 45 46 46 46 46 45 44 43 42 41
57 57 58 63 69 73 73 71 67 62 59 59 58 55 52 48 45 41 37 35 34 33 31 31 33 36 39 41 43 47 51 52 53 56 59 62 63 62 62 64 64 62 63 66 68 68 71 74 73 74 77 76 74 73 73 74 74 71 69 69 69 70 69 68 67 65 68 69 67 67 65 59 52 45 43 44 46 47 47 47 47 47 46 44 42
58 57 58 60 63 67 70 68 65 61 59 57 57 57 55 53 50 45 42 39 38 37 34 31 30 32 35 37 40 43 44 48 54 59 59 59 61 61 61 62 64 65 66 69 72 73 75 76 75 76 78 77 74 73 72 73 74 72 70 70 71 72 71 71 69 67 68 69 69 68 66 65 62 52 43 42 44 45 46 47 47 47 47 45 43
58 58 59 61 63 66 68 68 67 66 63 62 61 60 60 59 55 51 47 44 42 41 39 36 33 33 33 33 33 36 38 42 50 57 59 59 62 65 66 64 65 67 67 66 69 72 76 78 77 75 77 77 75 72 71 72 74 74 72 72 73 74 73 73 71 69 68 68 68 66 64 66 66 55 43 42 45 44 45 46 46 47 46 43 41
53 55 57 59 62 65 66 67 66 66 66 66 65 63 62 60 57 54 51 47 44 43 42 41 40 39 37 36 33 32 33 36 42 49 53 54 58 64 67 66 67 69 66 63 64 65 68 74 78 78 78 78 76 74 72 72 75 76 74 73 74 75 75 75 74 71 69 69 68 66 65 67 67 57 46 44 45 43 42 44 45 45 44 42 42
51 54 56 56 57 60 61 62 62 61 61 62 62 60 58 56 53 51 50 49 47 46 45 45 44 43 42 41 39 35 33 33 38 44 48 49 55 62 65 64 66 68 66 61 63 65 64 66 72 80 84 83 79 78 77 75 77 77 75 73 74 75 75 74 74 73 71 70 69 67 68 70 71 63 53 47 45 42 42 43 45 46 45 45 46
54 56 58 57 55 56 56 56 57 56 57 58 58 57 56 54 53 51 51 50 49 47 47 47 47 45 43 43 42 40 38 37 38 44 48 49 54 60 64 64 65 68 66 63 65 68 68 66 67 73 80 82 80 80 79 80 81 81 78 75 75 75 73 73 73 73 72 71 70 69 69 72 74 70 63 55 50 47 46 46 47 48 49 50 49
52 57 61 61 58 57 55 54 54 55 55 56 56 55 54 54 54 55 55 55 53 51 50 50 49 47 45 44 44 43 42 43 43 45 48 51 55 58 61 62 62 66 70 70 69 70 70 70 69 68 70 75 80 82 81 80 81 82 80 78 77 77 75 74 74 73 73 72 70 70 70 73 75 74 70 65 58 53 52 50 47 47 50 51 50
38 46 56 61 60 60 59 57 57 57 56 56 56 55 55 53 54 55 56 58 59 59 58 57 55 52 50 49 47 45 44 44 45 45 45 48 51 55 59 61 60 63 70 74 73 72 71 71 74 72 69 70 78 83 83 80 80 80 81 81 82 81 80 79 78 76 75 73 70 69 71 73 76 76 74 71 66 61 58 54 49 48 49 49 48
27 32 41 47 49 52 55 56 59 61 60 60 58 58 57 56 55 55 55 57 59 61 62 62 61 60 58 54 52 50 48 47 46 45 45 45 45 47 51 56 59 61 64 68 72 72 71 72 74 72 69 70 76 80 81 82 82 81 81 82 82 81 80 81 80 79 79 76 72 69 69 70 74 77 76 74 72 67 63 60 56 51 49 48 48
30 30 33 34 34 36 40 42 48 54 61 65 65 63 62 60 57 55 53 54 55 57 59 59 59 60 60 59 56 54 53 52 50 48 47 46 45 44 44 48 54 58 59 61 65 67 69 71 72 70 67 68 73 78 80 80 80 81 82 82 81 80 79 78 77 78 81 79 76 73 70 69 72 75 76 75 73 70 66 64 60 54 50 50 50
32 31 32 31 30 31 32 33 34 38 46 56 64 68 67 63 59 56 52 51 51 53 56 57 55 55 56 57 56 55 54 54 54 54 52 49 45 45 44 43 46 51 54 55 56 58 62 67 69 70 68 66 69 77 80 79 78 80 83 83 82 82 82 78 75 76 78 79 79 78 75 74 74 74 75 75 74 72 69 66 63 60 55 53 52
32 29 29 29 29 30 32 32 32 33 34 40 49 58 64 64 61 58 54 51 49 49 51 54 55 54 53 53 53 52 51 51 53 55 57 54 49 45 45 44 44 45 48 50 50 52 57 62 64 67 69 67 68 74 78 78 77 79 82 82 81 82 82 79 77 76 76 77 79 79 79 80 79 76 75 75 74 73 70 66 63 63 60 56 53
32 29 29 30 30 30 30 31 32 33 33 34 37 42 50 56 58 57 54 52 52 52 53 56 58 57 55 54 54 53 51 50 49 50 53 55 54 51 50 51 50 47 45 47 49 50 53 58 62 67 72 71 67 70 76 77 75 75 77 79 80 82 82 80 79 79 79 79 78 77 78 81 82 80 77 74 71 69 67 66 64 64 64 62 57
33 31 32 33 32 31 30 30 31 32 33 33 34 35 38 43 48 51 51 50 50 52 54 57 61 60 57 55 55 54 52 50 48 47 47 49 51 51 52 54 55 54 49 47 49 52 53 56 58 65 74 76 70 70 75 76 74 73 75 77 81 84 84 83 81 81 82 84 83 80 78 80 83 83 78 73 70 68 69 71 70 69 69 67 65
34 34 36 36 34 32 31 30 31 32 32 33 33 34 34 35 37 42 47 47 47 48 49 52 55 57 55 53 53 53 52 50 48 46 44 44 44 45 46 49 51 54 52 50 51 54 56 59 60 62 69 75 72 68 69 71 72 74 76 79 82 83 83 83 83 83 84 85 86 85 81 77 78 81 81 79 77 76 75 74 72 72 74 75 75
34 35 38 39 36 34 32 32 31 31 31 32 33 34 34 35 35 35 38 42 45 47 47 48 49 51 50 47 46 47 48 48 48 47 45 44 42 42 42 43 45 46 47 48 52 54 56 60 62 62 64 70 72 68 63 63 66 71 76 81 81 79 80 83 86 85 85 85 86 87 84 78 75 78 83 84 84 83 81 78 74 73 74 77 77
37 36 38 39 38 36 34 33 32 32 31 31 32 32 33 34 35 34 34 36 39 42 45 46 46 47 47 44 42 42 42 42 41 42 42 41 41 40 39 39 40 40 39 42 47 51 54 57 58 58 59 63 68 68 64 61 61 63 69 76 78 75 76 80 83 85 86 86 86 87 87 83 81 82 84 84 85 85 84 82 80 77 77 78 78
41 40 39 37 37 37 38 36 34 33 32 32 31 31 32 33 35 36 36 37 37 39 41 43 44 44 45 44 42 40 40 39 38 37 37 37 37 37 37 36 36 36 35 36 38 43 50 54 55 56 58 59 61 64 64 63 62 61 63 69 71 71 73 78 81 82 84 86 86 86 85 84 83 84 84 84 86 86 84 82 82 81 80 82 82
43 44 43 39 36 36 39 39 38 36 35 35 34 34 34 35 36 37 38 38 38 38 38 40 42 43 44 44 42 40 39 38 38 37 37 37 36 36 35 35 35 34 33 34 34 33 39 48 54 58 61 62 61 60 59 61 64 63 64 66 68 68 71 76 79 80 82 84 84 85 84 82 81 83 86 87 86 85 83 82 83 84 84 85 85
45 46 46 43 39 37 37 38 40 40 39 38 38 37 36 37 37 37 38 38 38 39 39 38 39 40 41 41 42 43 41 40 38 35 34 33 34 34 34 34 34 33 32 33 32 29 29 37 47 57 63 66 66 63 60 62 66 65 65 68 70 71 73 75 78 80 83 84 83 83 83 82 80 82 86 88 86 85 83 82 82 84 85 85 85
47 49 51 49 44 39 39 40 42 42 42 41 39 38 37 38 38 39 39 38 38 39 40 40 39 39 39 39 40 41 42 42 41 39 36 34 32 31 32 34 34 34 33 33 32 31 30 31 37 48 58 64 67 67 65 66 68 68 67 68 70 73 76 78 80 84 86 86 84 82 83 84 83 83 86 87 86 85 84 83 85 86 86 86 86
46 50 54 53 46 41 42 44 43 41 40 41 40 40 39 38 37 38 39 39 40 40 40 40 39 39 39 39 39 38 38 37 37 38 39 40 39 37 36 36 36 37 38 37 36 37 38 36 34 40 50 57 63 67 68 68 70 70 69 67 66 69 73 76 81 86 88 88 86 82 83 85 86 86 88 89 88 88 87 85 85 85 84 86 90
46 49 55 55 51 47 46 45 43 41 39 37 38 40 42 42 40 39 39 38 40 41 41 41 40 40 39 39 39 38 37 36 35 35 36 40 42 44 45 44 42 40 40 41 41 42 42 41 38 39 43 49 55 61 64 67 71 74 74 72 70 70 71 74 79 85 88 89 89 87 85 87 88 88 90 91 91 91 89 83 80 79 80 85 92
46 49 53 55 54 55 52 48 47 46 42 38 36 37 42 47 46 44 42 40 39 40 41 41 41 40 40 40 39 38 37 36 36 38 39 39 40 42 44 45 46 45 44 45 46 46 45 44 42 41 41 43 48 53 57 62 68 75 78 78 77 76 75 76 80 84 86 89 91 89 88 89 90 90 91 91 91 92 90 84 80 81 84 88 94
46 49 52 53 55 57 55 51 49 48 45 42 38 37 43 50 50 47 46 44 42 43 43 43 42 41 41 41 41 41 39 39 39 40 41 41 40 39 40 41 45 48 50 50 51 53 52 48 45 43 42 43 47 51 53 57 63 69 74 78 79 78 77 78 81 85 88 90 91 89 87 87 87 88 91 93 93 93 91 87 84 86 90 93 95
48 50 52 53 55 58 56 52 50 47 44 43 41 39 43 51 52 49 47 46 45 44 44 44 43 43 43 43 44 44 44 43 42 42 43 42 42 41 42 44 46 49 51 53 57 60 61 57 52 47 44 44 48 51 53 56 60 63 68 74 77 77 76 77 79 82 85 88 91 91 91 90 89 90 92 94 93 92 91 89 86 86 88 89 89
50 52 55 57 57 57 57 55 53 48 44 42 42 41 42 47 52 52 49 46 45 44 43 43 42 42 41 42 44 45 46 46 45 45 46 47 47 46 46 47 49 49 50 54 60 66 69 67 62 56 49 46 48 53 55 57 60 61 63 67 70 72 74 76 76 77 81 86 90 92 93 93 93 93 92 92 91 91 92 91 88 86 86 85 84
54 56 59 61 60 57 56 56 55 51 45 41 42 42 42 43 47 51 51 49 47 44 42 42 41 40 40 40 40 40 42 45 47 48 47 46 47 49 50 50 51 51 52 54 60 67 73 74 72 66 58 51 51 55 58 59 62 64 64 63 64 67 71 74 77 81 86 89 90 92 92 92 93 93 93 92 90 90 92 93 91 88 87 86 84
59 61 63 63 61 58 57 57 55 51 47 43 42 44 46 45 42 42 44 46 46 45 44 43 41 39 39 38 38 38 38 39 41 43 45 46 48 52 55 55 55 56 58 60 62 67 73 78 79 76 68 61 58 59 61 62 63 63 64 63 63 66 71 74 77 82 87 89 90 92 93 94 95 94 93 92 92 92 93 93 92 89 88 87 84
61 62 62 61 60 58 58 59 56 52 49 46 43 45 49 49 43 38 37 39 39 40 42 43 42 39 37 37 37 36 36 37 39 42 46 50 54 56 58 58 58 61 65 67 67 70 74 79 84 84 78 70 66 65 65 66 66 64 63 62 63 66 74 80 81 81 84 88 91 94 96 96 96 93 90 88 87 86 86 86 89 90 90 88 86
61 60 60 60 60 59 59 59 57 53 50 47 45 46 48 48 44 40 37 36 36 35 37 41 39 34 32 33 35 35 35 36 38 41 45 49 54 58 60 60 60 64 70 74 74 75 77 82 87 90 87 80 74 70 68 68 68 67 66 67 66 65 70 79 83 82 82 85 88 92 94 94 92 91 89 85 83 82 82 84 87 89 87 86 85
60 59 60 62 62 61 60 57 55 53 50 48 48 48 47 46 45 43 40 40 39 37 37 38 36 31 27 27 29 32 34 35 35 36 39 42 46 52 58 62 62 65 72 78 79 78 80 83 90 95 95 89 83 77 73 72 72 70 70 75 79 77 76 81 87 87 85 84 85 85 86 86 88 90 90 87 84 83 82 83 84 84 82 82 84
61 61 64 65 63 61 60 56 53 53 53 51 50 49 47 47 48 47 46 45 42 39 38 36 34 32 30 27 26 28 30 31 32 32 32 34 36 40 47 56 63 67 72 78 80 80 82 88 94 99 99 97 91 84 79 77 76 73 70 72 77 77 76 78 83 86 88 89 88 84 81 81 85 89 91 89 87 87 85 84 84 83 81 80 80
65 67 68 67 62 58 57 54 51 52 53 52 51 49 48 48 50 51 51 48 43 39 38 37 35 34 33 30 28 28 28 29 30 29 28 29 30 31 35 42 54 65 73 78 82 82 85 93 98 100 100 100 98 92 86 81 78 77 76 77 79 80 79 77 78 81 85 90 91 89 84 82 84 89 91 92 91 92 92 91 90 87 84 82 80
69 70 69 65 59 55 52 49 48 49 49 49 49 47 46 47 50 52 52 49 43 38 36 35 34 33 32 31 29 29 28 29 30 29 29 28 27 28 27 30 38 52 63 71 77 81 86 93 99 99 99 100 101 98 95 92 87 84 83 83 86 90 92 91 90 90 89 89 91 90 88 87 87 89 91 92 94 95 95 95 93 90 86 83 80
70 69 66 61 56 52 49 46 45 45 44 44 44 44 44 46 48 49 49 46 41 37 34 32 30 29 28 27 26 25 25 26 27 28 29 28 26 26 26 24 27 36 47 55 62 69 76 88 98 100 99 99 100 99 99 100 99 96 91 87 86 89 93 95 98 98 96 94 93 92 90 88 89 91 92 93 92 91 91 91 90 89 87 85 82
70 68 64 59 55 52 48 45 43 41 38 38 38 38 38 41 42 41 39 35 31 28 27 26 25 24 23 22 22 22 22 23 23 24 25 25 24 24 24 23 22 26 33 40 46 51 57 71 86 94 97 98 100 100 99 99 99 99 98 96 95 96 97 97 96 94 91 88 89 92 93 90 88 89 92 93 91 91 91 90 87 84 83 82 81
71 67 63 58 55 52 48 45 43 39 36 34 33 32 32 33 33 31 28 24 22 21 21 21 20 20 19 19 19 20 20 21 22 21 21 21 21 21 22 22 22 22 23 27 33 37 41 49 61 74 83 89 93 96 99 99 98 97 97 97 97 97 97 97 96 94 91 85 82 86 91 91 89 90 92 92 91 90 91 90 86 83 81 81 80
70 66 61 57 55 51 47 44 42 39 35 31 30 28 27 26 26 24 22 20 19 19 20 20 19 19 19 19 19 19 20 20 21 21 21 21 20 20 20 21 22 22 21 21 23 26 29 32 38 49 62 72 78 83 89 93 96 96 97 97 96 96 95 94 95 96 97 93 87 85 86 89 91 94 96 95 93 91 89 87 86 84 83 83 82
68 63 58 55 52 49 45 43 42 39 34 30 28 26 24 24 23 22 21 21 21 20 21 22 21 20 20 20 20 20 21 21 21 21 21 21 21 21 21 21 21 22 23 22 22 23 24 24 26 32 42 54 63 69 73 78 84 88 91 93 95 96 97 96 96 97 98 97 93 91 89 89 90 91 93 95 96 95 94 93 91 88 87 87 85
65 60 55 52 50 47 45 43 41 37 32 29 26 25 24 23 23 23 22 23 23 23 23 23 23 22 22 22 22 22 23 23 22 22 22 21 21 21 21 22 22 22 23 23 23 23 23 24 24 24 29 37 47 56 61 65 69 73 78 83 87 91 95 97 97 97 98 97 96 95 94 93 91 90 89 91 92 92 94 96 94 91 90 89 88